Location: Sihaung
(22.8641°N, 94.0549°E)
Time: 12:46:11
(UTC+00:00)

Cosmos 2251 Rocket - Pass Details

Date: 03 March 2021
Orbit: 764 x 792 km, 74.0° (Epoch: 16 April)

Event Time Altitude Azimuth Distance (km) Brightness Sun altitude
Exits shadow 22:13:37 71° 205° (SSW) 824 3.4 -26.0°
Maximum altitude 22:14:14 86° 285° (WNW) 785 3.4 -25.8°
Drops below altitude 10° 22:19:34 10° 13° (NNE) 2,342 6.2 -24.6°
Sets 22:21:58 0° 14° (NNE) 3,276 7.0 -24.0°
